GW4127 Weather Reports


time (UTC)temp
C
wind
direction
speed
KPH
gust
KPH
rain 1hr
cm
rain 24hr
cm
rain mn
cm
humidity
%
barometer
mb
20260505041555 7 301 1.6 4.8 0.00 0.84 0.00 96 1016.1
20260505040045 7 301 3.2 9.7 0.00 0.84 0.00 95 1016.3
20260505034528 7 301 4.8 11.3 0.00 0.84 0.00 93 1016.4
20260505033021 8 301 0.0 4.8 0.00 0.84 0.00 92 1016.4
20260505031512 8 301 3.2 12.9 0.00 0.84 0.00 92 1016.3
20260505024549 8 301 3.2 6.4 0.00 0.84 0.00 91 1016.3
20260505023040 8 301 3.2 9.7 0.00 0.84 0.00 91 1016.3
20260505021525 7 301 1.6 6.4 0.00 0.84 0.00 93 1016.4
20260505020013 7 301 3.2 8.0 0.00 0.84 0.00 93 1016.5
20260505014507 8 301 4.8 12.9 0.00 0.84 0.00 93 1016.6
20260505013055 7 301 6.4 12.9 0.00 0.84 0.00 94 1016.6
20260505011607 8 301 4.8 11.3 0.00 0.84 0.00 93 1016.5
20260505010046 8 301 6.4 16.1 0.00 0.84 0.00 94 1016.6
20260505004529 8 301 6.4 12.9 0.00 0.84 0.00 95 1016.7
20260505003014 8 301 6.4 14.5 0.00 0.84 0.00 94 1016.7
20260505001513 8 301 6.4 17.7 0.00 0.84 0.00 93 1016.8
20260505000110 8 301 8.0 24.1 0.00 0.84 0.00 92 1016.9
20260504234541 8 301 8.0 20.9 0.00 0.84 0.00 93 1017.0
20260504233016 8 301 1.6 9.7 0.00 0.84 0.00 95 1017.0
20260504231504 8 301 3.2 9.7 0.00 0.84 0.00 96 1017.0
20260504230057 8 301 3.2 11.3 0.00 0.84 0.00 98 1017.0
20260504224547 8 301 4.8 11.3 0.00 0.84 0.00 98 1017.1
20260504223042 8 301 4.8 12.9 0.00 0.84 0.00 98 1017.1
20260504221530 7 301 1.6 9.7 0.00 0.84 0.00 98 1017.0
20260504220023 8 301 3.2 9.7 0.00 0.84 0.84 98 1016.9
20260504214510 8 301 0.0 9.7 0.00 0.84 0.84 98 1017.0
20260504213057 7 301 3.2 11.3 0.00 0.84 0.84 98 1017.0
20260504211551 7 301 6.4 14.5 0.00 0.84 0.84 98 1016.9
20260504210049 7 301 6.4 14.5 0.00 0.84 0.84 98 1016.7
20260504204543 7 301 8.0 11.3 0.00 0.84 0.84 98 1016.8
20260504203028 7 301 6.4 12.9 0.03 0.84 0.84 98 1016.6
20260504201505 7 301 6.4 12.9 0.03 0.84 0.84 98 1016.6
20260504200100 7 301 8.0 16.1 0.23 0.84 0.84 97 1016.4
20260504194538 7 301 9.7 16.1 0.71 0.84 0.84 97 1016.4
20260504193009 8 301 4.8 17.7 0.81 0.81 0.81 97 1016.7
20260504191611 8 301 9.7 19.3 0.81 0.81 0.81 96 1016.8
20260504190037 8 301 9.7 20.9 0.56 0.56 0.61 95 1017.1
20260504184520 9 301 0.0 6.4 0.13 0.13 0.15 93 1016.3
20260504183011 11 301 3.2 9.7 0.00 0.00 0.00 93 1016.2
20260504181507 11 301 1.6 14.5 0.00 0.00 0.00 94 1016.3
20260504180041 12 301 6.4 14.5 0.00 0.00 0.00 94 1015.9
20260504174543 12 301 4.8 12.9 0.00 0.00 0.00 93 1015.6
20260504173023 12 301 3.2 8.0 0.00 0.00 0.00 91 1015.5
20260504171525 13 301 3.2 8.0 0.00 0.00 0.00 90 1015.8
20260504090117 14 301 1.6 9.7 0.00 0.00 0.00 84 1017.5
20260504081525 13 301 4.8 8.0 0.00 0.00 0.00 89 1017.7